Location: Mariposa
(37.4849°N, 119.9663°W)
Time: 03:37:11
(UTC+00:00)

Cosmos 2242 Rocket - Pass Details

Date: 03 August 2024
Orbit: 616 x 647 km, 82.5° (Epoch: 13 September)

Event Time Altitude Azimuth Distance (km) Brightness Sun altitude
Rises 12:05:17 0° 352° (N) 2,896 7.3 -11.5°
Reaches altitude 10° 12:07:30 10° 352° (N) 1,989 6.5 -11.2°
Maximum altitude 12:11:55 85° 266° (W) 628 3.5 -10.4°
Drops below altitude 10° 12:16:19 10° 176° (S) 1,989 5.9 -9.7°
Sets 12:18:33 0° 176° (S) 2,896 6.7 -9.3°
